Time,TemperatureF,DewpointF,PressureIn,WindDirection,WindDirectionDegrees,WindSpeedMPH,WindSpeedGustMPH,Humidity,HourlyPrecipIn,Conditions,Clouds,dailyrainin,SoftwareType,DateUTC
2013-03-29 01:03:00,55.0,-99.9,-100.00,ESE,110,4.0,4.0,-999,-99.99,,,-99.99,,2013-03-29 07:03:00,
2013-03-29 01:12:00,55.0,-99.9,-100.00,ESE,110,4.0,4.0,-999,-99.99,,,-99.99,,2013-03-29 07:12:00,
2013-03-29 01:22:00,55.0,-99.9,-100.00,ESE,110,4.0,4.0,-999,-99.99,,,-99.99,,2013-03-29 07:22:00,
2013-03-29 02:40:00,55.0,-99.9,-100.00,East,95,2.0,4.0,-999,-99.99,,,-99.99,,2013-03-29 08:40:00,
2013-03-29 03:22:00,55.0,-99.9,-100.00,East,95,2.0,4.0,-999,-99.99,,,-99.99,,2013-03-29 09:22:00,
2013-03-29 03:33:00,55.0,-99.9,-100.00,East,95,2.0,4.0,-999,-99.99,,,-99.99,,2013-03-29 09:33:00,
2013-03-29 04:00:00,51.0,-99.9,-100.00,WNW,283,0.0,1.0,-999,-99.99,,,-99.99,,2013-03-29 10:00:00,
2013-03-29 04:54:00,51.0,-99.9,-100.00,WNW,283,0.0,1.0,-999,-99.99,,,-99.99,,2013-03-29 10:54:00,
2013-03-29 06:22:00,52.0,-99.9,-100.00,SE,127,3.0,3.0,-999,-99.99,,,-99.99,,2013-03-29 12:22:00,
2013-03-29 06:33:00,53.0,-99.9,-100.00,East,92,2.0,3.0,-999,-99.99,,,-99.99,,2013-03-29 12:33:00,
2013-03-29 06:43:00,53.0,-99.9,-100.00,East,92,2.0,3.0,-999,-99.99,,,-99.99,,2013-03-29 12:43:00,
2013-03-29 06:53:00,53.0,-99.9,-100.00,East,92,2.0,3.0,-999,-99.99,,,-99.99,,2013-03-29 12:53:00,
2013-03-29 07:03:00,53.0,-99.9,-100.00,ENE,75,2.0,6.0,-999,-99.99,,,-99.99,,2013-03-29 13:03:00,
2013-03-29 07:10:00,51.0,-99.9,-100.00,SE,127,3.0,6.0,-999,-99.99,,,-99.99,,2013-03-29 13:10:00,
2013-03-29 07:13:00,53.0,-99.9,-100.00,ENE,75,2.0,6.0,-999,-99.99,,,-99.99,,2013-03-29 13:13:00,
2013-03-29 07:23:00,53.0,-99.9,-100.00,East,87,2.0,5.0,-999,-99.99,,,-99.99,,2013-03-29 13:23:00,
2013-03-29 07:33:00,53.0,-99.9,-100.00,East,87,2.0,5.0,-999,-99.99,,,-99.99,,2013-03-29 13:33:00,
2013-03-29 07:53:00,51.0,-99.9,-100.00,SE,127,3.0,6.0,-999,-99.99,,,-99.99,,2013-03-29 13:53:00,
2013-03-29 08:03:00,51.0,-99.9,-100.00,SE,127,3.0,6.0,-999,-99.99,,,-99.99,,2013-03-29 14:03:00,
2013-03-29 09:03:00,58.0,-99.9,-100.00,East,89,2.0,4.0,-999,-99.99,,,-99.99,,2013-03-29 15:03:00,
2013-03-29 09:12:00,58.0,-99.9,-100.00,East,89,2.0,4.0,-999,-99.99,,,-99.99,,2013-03-29 15:12:00,
2013-03-29 09:22:00,58.0,-99.9,-100.00,East,89,2.0,4.0,-999,-99.99,,,-99.99,,2013-03-29 15:22:00,
2013-03-29 12:03:00,73.0,-99.9,-100.00,West,269,1.0,3.0,-999,-99.99,,,-99.99,,2013-03-29 18:03:00,
2013-03-29 12:13:00,73.0,-99.9,-100.00,West,269,1.0,3.0,-999,-99.99,,,-99.99,,2013-03-29 18:13:00,
2013-03-29 12:23:00,71.0,-99.9,-100.00,WNW,283,2.0,4.0,-999,-99.99,,,-99.99,,2013-03-29 18:23:00,
2013-03-29 12:33:00,72.0,-99.9,-100.00,NNW,347,3.0,5.0,-999,-99.99,,,-99.99,,2013-03-29 18:33:00,
2013-03-29 12:43:00,72.0,-99.9,-100.00,NNW,347,3.0,5.0,-999,-99.99,,,-99.99,,2013-03-29 18:43:00,
2013-03-29 13:53:00,76.0,-99.9,-100.00,SE,130,1.0,5.0,-999,-99.99,,,-99.99,,2013-03-29 19:53:00,
2013-03-29 14:03:00,76.0,-99.9,-100.00,SE,130,1.0,5.0,-999,-99.99,,,-99.99,,2013-03-29 20:03:00,
2013-03-29 14:10:00,76.0,-99.9,-100.00,NW,314,4.0,4.0,-999,-99.99,,,-99.99,,2013-03-29 20:10:00,
2013-03-29 14:52:00,76.0,-99.9,-100.00,NW,314,4.0,4.0,-999,-99.99,,,-99.99,,2013-03-29 20:52:00,
2013-03-29 15:02:00,76.0,-99.9,-100.00,NW,314,4.0,4.0,-999,-99.99,,,-99.99,,2013-03-29 21:02:00,
2013-03-29 15:30:00,76.0,-99.9,-100.00,ENE,68,1.0,4.0,-999,-99.99,,,-99.99,,2013-03-29 21:30:00,
2013-03-29 15:33:00,79.0,-99.9,-100.00,NE,38,0.0,6.0,-999,-99.99,,,-99.99,,2013-03-29 21:33:00,
2013-03-29 15:43:00,79.0,-99.9,-100.00,NE,38,0.0,6.0,-999,-99.99,,,-99.99,,2013-03-29 21:43:00,
2013-03-29 15:53:00,78.0,-99.9,-100.00,South,174,1.0,7.0,-999,-99.99,,,-99.99,,2013-03-29 21:53:00,
2013-03-29 16:03:00,76.0,-99.9,-100.00,ENE,68,1.0,4.0,-999,-99.99,,,-99.99,,2013-03-29 22:03:00,
2013-03-29 16:13:00,76.0,-99.9,-100.00,ENE,68,1.0,4.0,-999,-99.99,,,-99.99,,2013-03-29 22:13:00,
2013-03-29 16:23:00,76.0,-99.9,-100.00,ENE,68,1.0,4.0,-999,-99.99,,,-99.99,,2013-03-29 22:23:00,
2013-03-29 18:03:00,78.0,-99.9,-100.00,West,278,3.0,3.0,-999,-99.99,,,-99.99,,2013-03-30 00:03:00,
2013-03-29 18:13:00,78.0,-99.9,-100.00,West,278,3.0,3.0,-999,-99.99,,,-99.99,,2013-03-30 00:13:00,
2013-03-29 18:23:00,77.0,-99.9,-100.00,SSW,198,2.0,7.0,-999,-99.99,,,-99.99,,2013-03-30 00:23:00,
2013-03-29 18:33:00,77.0,-99.9,-100.00,SSW,198,2.0,7.0,-999,-99.99,,,-99.99,,2013-03-30 00:33:00,
2013-03-29 18:43:00,77.0,-99.9,-100.00,SSW,198,2.0,7.0,-999,-99.99,,,-99.99,,2013-03-30 00:43:00,
2013-03-29 20:10:00,69.0,-99.9,-100.00,West,266,2.0,2.0,-999,-99.99,,,-99.99,,2013-03-30 02:10:00,
2013-03-29 20:33:00,69.0,-99.9,-100.00,West,261,1.0,1.0,-999,-99.99,,,-99.99,,2013-03-30 02:33:00,
2013-03-29 20:43:00,69.0,-99.9,-100.00,West,261,1.0,1.0,-999,-99.99,,,-99.99,,2013-03-30 02:43:00,
2013-03-29 20:53:00,69.0,-99.9,-100.00,West,266,2.0,2.0,-999,-99.99,,,-99.99,,2013-03-30 02:53:00,
2013-03-29 21:03:00,69.0,-99.9,-100.00,West,266,2.0,2.0,-999,-99.99,,,-99.99,,2013-03-30 03:03:00,
2013-03-29 21:40:00,63.0,-99.9,-100.00,SE,140,1.0,3.0,-999,-99.99,,,-99.99,,2013-03-30 03:40:00,
2013-03-29 22:10:00,62.0,-99.9,-100.00,SE,135,1.0,6.0,-999,-99.99,,,-99.99,,2013-03-30 04:10:00,
2013-03-29 22:23:00,63.0,-99.9,-100.00,SE,140,1.0,3.0,-999,-99.99,,,-99.99,,2013-03-30 04:23:00,
2013-03-29 22:33:00,63.0,-99.9,-100.00,SE,140,1.0,3.0,-999,-99.99,,,-99.99,,2013-03-30 04:33:00,
2013-03-29 22:53:00,62.0,-99.9,-100.00,SE,135,1.0,6.0,-999,-99.99,,,-99.99,,2013-03-30 04:53:00,
2013-03-29 23:03:00,62.0,-99.9,-100.00,SE,135,1.0,6.0,-999,-99.99,,,-99.99,,2013-03-30 05:03:00,
2013-03-29 23:40:00,58.0,-99.9,-100.00,NE,42,2.0,6.0,-999,-99.99,,,-99.99,,2013-03-30 05:40:00,
2013-03-29 23:52:00,60.0,-99.9,-100.00,SE,133,1.0,2.0,-999,-99.99,,,-99.99,,2013-03-30 05:52:00,